Location: Unspecified
(64.9000°N, 0.0000°E)
Time: 02:11:38
(UTC+00:00)

Vanguard 1 - Pass Details

Date: 27 June 2019
Orbit: 655 x 3829 km, 34.2° (Epoch: 16 August)

Event Time Altitude Azimuth Distance (km) Brightness Sun altitude
Rises 00:30:38 0° 197° (SSW) 7,812 - -1.6°
Exits shadow 00:31:27 - 196° (SSW) 7,688 13.9 -1.6°
Reaches altitude 10° 00:41:56 10° 172° (S) 6,227 13.5 -1.4°
Maximum altitude 00:46:56 12° 157° (SSE) 5,716 13.5 -1.4°
Drops below altitude 10° 00:51:25 10° 141° (SE) 5,465 13.5 -1.3°
Sets 00:59:07 0° 113° (ESE) 5,676 13.9 -1.1°
